| time (UTC) | temp F | wind direction | speed MPH | gust MPH | rain 1hr in | rain 24hr in | rain mn in | humidity % | barometer mb |
| 20260510144539 | 44 | 248 | 1.0 | 4.0 | 0.00 | 0.00 | 0.00 | 41 | 1016.4 |
| 20260510143030 | 44 | 296 | 2.0 | 6.0 | 0.00 | 0.00 | 0.00 | 41 | 1016.3 |
| 20260510141535 | 44 | 114 | 2.0 | 5.0 | 0.00 | 0.00 | 0.00 | 42 | 1016.2 |
| 20260510140025 | 43 | 40 | 1.0 | 5.0 | 0.00 | 0.00 | 0.00 | 45 | 1016.2 |
| 20260510134525 | 40 | 154 | 0.0 | 2.0 | 0.00 | 0.00 | 0.00 | 50 | 1016.1 |
| 20260510133019 | 38 | 35 | 0.0 | 2.0 | 0.00 | 0.00 | 0.00 | 53 | 1016.1 |
| 20260510131516 | 36 | 304 | 0.0 | 2.0 | 0.00 | 0.00 | 0.00 | 54 | 1016.2 |
| 20260510130017 | 36 | 97 | 0.0 | 2.0 | 0.00 | 0.00 | 0.00 | 55 | 1016.1 |
| 20260510124514 | 35 | 97 | 0.0 | 2.0 | 0.00 | 0.00 | 0.00 | 56 | 1016.0 |
| 20260510123012 | 34 | 61 | 0.0 | 3.0 | 0.00 | 0.00 | 0.00 | 56 | 1015.8 |
| 20260510121512 | 34 | 61 | 0.0 | 2.0 | 0.00 | 0.00 | 0.00 | 56 | 1015.5 |
| 20260510120010 | 34 | 67 | 0.0 | 2.0 | 0.00 | 0.00 | 0.00 | 56 | 1015.4 |
| 20260510114514 | 34 | 75 | 0.0 | 2.0 | 0.00 | 0.00 | 0.00 | 55 | 1015.3 |
| 20260510113009 | 33 | 75 | 0.0 | 3.0 | 0.00 | 0.00 | 0.00 | 57 | 1015.2 |
| 20260510111508 | 32 | 75 | 0.0 | 3.0 | 0.00 | 0.00 | 0.00 | 60 | 1015.0 |
| 20260510110008 | 31 | 75 | 0.0 | 2.0 | 0.00 | 0.00 | 0.00 | 61 | 1015.0 |
| 20260510104506 | 30 | 75 | 0.0 | 3.0 | 0.00 | 0.00 | 0.00 | 60 | 1014.8 |
| 20260510103004 | 30 | 75 | 0.0 | 0.0 | 0.00 | 0.00 | 0.00 | 60 | 1014.6 |
| 20260510101502 | 31 | 75 | 0.0 | 1.0 | 0.00 | 0.00 | 0.00 | 59 | 1014.4 |
| 20260510100105 | 31 | 75 | 0.0 | 1.0 | 0.00 | 0.00 | 0.00 | 59 | 1014.2 |
| 20260510094606 | 31 | 75 | 0.0 | 0.0 | 0.00 | 0.00 | 0.00 | 59 | 1014.0 |
| 20260510093100 | 31 | 75 | 0.0 | 2.0 | 0.00 | 0.00 | 0.00 | 59 | 1014.0 |
| 20260510091557 | 31 | 75 | 0.0 | 0.0 | 0.00 | 0.00 | 0.00 | 59 | 1013.8 |
| 20260510090057 | 31 | 75 | 0.0 | 0.0 | 0.00 | 0.00 | 0.00 | 58 | 1013.9 |
| 20260510084556 | 31 | 75 | 0.0 | 0.0 | 0.00 | 0.00 | 0.00 | 58 | 1013.6 |
| 20260510083053 | 32 | 75 | 0.0 | 0.0 | 0.00 | 0.00 | 0.00 | 58 | 1013.5 |
| 20260510081551 | 32 | 75 | 0.0 | 0.0 | 0.00 | 0.00 | 0.00 | 57 | 1013.3 |
| 20260510080149 | 33 | 75 | 0.0 | 0.0 | 0.00 | 0.00 | 0.00 | 56 | 1013.3 |
| 20260510074556 | 33 | 75 | 0.0 | 0.0 | 0.00 | 0.00 | 0.00 | 57 | 1013.1 |
| 20260510073049 | 33 | 75 | 0.0 | 0.0 | 0.00 | 0.00 | 0.00 | 56 | 1012.9 |
| 20260510071545 | 34 | 75 | 0.0 | 0.0 | 0.00 | 0.00 | 0.00 | 54 | 1012.8 |
| 20260510070055 | 35 | 75 | 0.0 | 0.0 | 0.00 | 0.00 | 0.00 | 53 | 1012.6 |
| 20260510064543 | 35 | 75 | 0.0 | 0.0 | 0.00 | 0.00 | 0.00 | 53 | 1012.5 |
| 20260510063041 | 36 | 75 | 0.0 | 0.0 | 0.00 | 0.00 | 0.00 | 53 | 1012.6 |
| 20260510061536 | 36 | 75 | 0.0 | 0.0 | 0.00 | 0.00 | 0.00 | 53 | 1012.5 |
| 20260510060039 | 35 | 75 | 0.0 | 1.0 | 0.00 | 0.00 | 0.00 | 54 | 1012.4 |
| 20260510054533 | 35 | 75 | 0.0 | 2.0 | 0.00 | 0.00 | 0.00 | 53 | 1012.3 |
| 20260510053031 | 35 | 75 | 0.0 | 1.0 | 0.00 | 0.00 | 0.00 | 53 | 1012.2 |
| 20260510051527 | 36 | 75 | 0.0 | 0.0 | 0.00 | 0.00 | 0.00 | 52 | 1012.0 |
| 20260510050024 | 36 | 75 | 0.0 | 0.0 | 0.00 | 0.00 | 0.00 | 50 | 1011.9 |
| 20260510044523 | 37 | 75 | 0.0 | 0.0 | 0.00 | 0.00 | 0.00 | 48 | 1011.8 |
| 20260510043020 | 38 | 75 | 0.0 | 1.0 | 0.00 | 0.00 | 0.00 | 47 | 1011.8 |
| 20260510041517 | 39 | 75 | 0.0 | 0.0 | 0.00 | 0.00 | 0.00 | 45 | 1011.7 |
| 20260510040016 | 40 | 75 | 0.0 | 1.0 | 0.00 | 0.00 | 0.00 | 43 | 1011.6 |
| 20260510034514 | 41 | 161 | 0.0 | 1.0 | 0.00 | 0.00 | 0.00 | 40 | 1011.6 |
| 20260510033013 | 41 | 161 | 0.0 | 3.0 | 0.00 | 0.00 | 0.00 | 40 | 1011.4 |
| 20260510031511 | 41 | 134 | 0.0 | 3.0 | 0.00 | 0.00 | 0.00 | 38 | 1011.3 |
| 20260510030009 | 42 | 157 | 0.0 | 3.0 | 0.00 | 0.00 | 0.00 | 35 | 1011.3 |
| 20260510024514 | 42 | 138 | 0.0 | 3.0 | 0.00 | 0.00 | 0.00 | 35 | 1011.2 |
| 20260510023007 | 42 | 177 | 0.0 | 3.0 | 0.00 | 0.00 | 0.00 | 34 | 1010.9 |
| 20260510021505 | 42 | 132 | 0.0 | 1.0 | 0.00 | 0.00 | 0.00 | 34 | 1010.7 |
| 20260510020006 | 42 | 132 | 0.0 | 1.0 | 0.00 | 0.00 | 0.00 | 33 | 1010.3 |
| 20260510014608 | 42 | 132 | 0.0 | 2.0 | 0.00 | 0.00 | 0.00 | 32 | 1010.1 |
| 20260510013058 | 43 | 184 | 0.0 | 2.0 | 0.00 | 0.00 | 0.00 | 32 | 1009.9 |
| 20260510011559 | 43 | 186 | 0.0 | 2.0 | 0.00 | 0.00 | 0.00 | 32 | 1009.8 |
| 20260510004558 | 44 | 176 | 1.0 | 4.0 | 0.00 | 0.00 | 0.00 | 30 | 1009.4 |
| 20260510003100 | 45 | 127 | 0.0 | 7.0 | 0.00 | 0.00 | 0.00 | 28 | 1009.2 |
| 20260510001552 | 45 | 130 | 1.0 | 7.0 | 0.00 | 0.00 | 0.00 | 28 | 1009.0 |
| 20260510000054 | 46 | 133 | 1.0 | 6.0 | 0.00 | 0.00 | 0.00 | 27 | 1008.8 |
| 20260509234604 | 46 | 139 | 2.0 | 6.0 | 0.00 | 0.00 | 0.00 | 26 | 1008.6 |
| 20260509233047 | 46 | 155 | 2.0 | 7.0 | 0.00 | 0.00 | 0.00 | 27 | 1008.1 |
| 20260509231546 | 47 | 123 | 2.0 | 8.0 | 0.00 | 0.00 | 0.00 | 28 | 1007.9 |
| 20260509230044 | 48 | 169 | 2.0 | 6.0 | 0.00 | 0.00 | 0.00 | 30 | 1007.6 |
| 20260509224543 | 49 | 144 | 4.0 | 10.0 | 0.00 | 0.00 | 0.00 | 29 | 1007.2 |
| 20260509223047 | 49 | 205 | 2.0 | 5.0 | 0.00 | 0.00 | 0.00 | 28 | 1006.5 |
| 20260509221538 | 50 | 130 | 2.0 | 6.0 | 0.00 | 0.00 | 0.00 | 27 | 1006.1 |
| 20260509220052 | 50 | 97 | 1.0 | 5.0 | 0.00 | 0.00 | 0.00 | 27 | 1005.9 |
| 20260509214541 | 50 | 200 | 2.0 | 9.0 | 0.00 | 0.00 | 0.00 | 26 | 1005.7 |
| 20260509213040 | 51 | 156 | 3.0 | 10.0 | 0.00 | 0.00 | 0.00 | 24 | 1005.6 |
| 20260509211537 | 51 | 123 | 2.0 | 10.0 | 0.00 | 0.00 | 0.00 | 25 | 1005.2 |
| 20260509210034 | 51 | 165 | 2.0 | 8.0 | 0.00 | 0.00 | 0.00 | 26 | 1004.9 |
| 20260509204540 | 52 | 179 | 2.0 | 6.0 | 0.00 | 0.00 | 0.00 | 21 | 1004.7 |
| 20260509203035 | 52 | 186 | 2.0 | 8.0 | 0.00 | 0.00 | 0.00 | 21 | 1004.6 |
| 20260509201530 | 53 | 161 | 4.0 | 9.0 | 0.00 | 0.00 | 0.00 | 20 | 1004.4 |
| 20260509200036 | 53 | 123 | 3.0 | 8.0 | 0.00 | 0.00 | 0.00 | 21 | 1004.2 |
| 20260509194537 | 52 | 134 | 1.0 | 7.0 | 0.00 | 0.00 | 0.00 | 23 | 1004.0 |
| 20260509193036 | 53 | 154 | 4.0 | 12.0 | 0.00 | 0.00 | 0.00 | 20 | 1003.8 |
| 20260509191524 | 53 | 125 | 4.0 | 10.0 | 0.00 | 0.00 | 0.00 | 21 | 1003.6 |
| 20260509190023 | 53 | 135 | 3.0 | 10.0 | 0.00 | 0.00 | 0.00 | 21 | 1003.1 |
| 20260509184520 | 53 | 104 | 2.0 | 8.0 | 0.00 | 0.00 | 0.00 | 21 | 1002.7 |
| 20260509183018 | 52 | 172 | 2.0 | 8.0 | 0.00 | 0.00 | 0.00 | 22 | 1002.3 |
| 20260509181516 | 52 | 129 | 2.0 | 6.0 | 0.00 | 0.00 | 0.00 | 22 | 1002.4 |
| 20260509180013 | 53 | 123 | 3.0 | 8.0 | 0.00 | 0.00 | 0.00 | 21 | 1002.1 |
| 20260509174514 | 53 | 159 | 3.0 | 6.0 | 0.00 | 0.00 | 0.00 | 22 | 1001.9 |
| 20260509173012 | 52 | 119 | 2.0 | 6.0 | 0.00 | 0.00 | 0.00 | 24 | 1001.9 |
| 20260509171513 | 52 | 135 | 2.0 | 9.0 | 0.00 | 0.00 | 0.00 | 23 | 1001.6 |
| 20260509170010 | 51 | 140 | 2.0 | 8.0 | 0.00 | 0.00 | 0.00 | 25 | 1001.5 |
| 20260509164508 | 52 | 192 | 2.0 | 8.0 | 0.00 | 0.00 | 0.00 | 23 | 1001.3 |
| 20260509163016 | 53 | 165 | 2.0 | 8.0 | 0.00 | 0.00 | 0.00 | 21 | 1001.1 |
| 20260509161504 | 52 | 198 | 1.0 | 4.0 | 0.00 | 0.00 | 0.00 | 24 | 1001.0 |
| 20260509160002 | 50 | 131 | 1.0 | 6.0 | 0.00 | 0.00 | 0.00 | 24 | 1000.8 |
| 20260509154501 | 49 | 116 | 2.0 | 5.0 | 0.00 | 0.00 | 0.00 | 24 | 1000.7 |
| 20260509153100 | 50 | 160 | 2.0 | 8.0 | 0.00 | 0.00 | 0.00 | 24 | 1000.7 |
| 20260509151558 | 51 | 250 | 2.0 | 7.0 | 0.00 | 0.00 | 0.00 | 24 | 1000.5 |
| 20260509150055 | 51 | 169 | 2.0 | 8.0 | 0.00 | 0.00 | 0.00 | 27 | 1000.0 |